| time (UTC) | temp F | wind direction | speed knots | gust knots | rain 1hr in | rain 24hr in | rain mn in | humidity % | barometer mb |
| 20260505114600 | 60 | 195 | 5.2 | 9.6 | 0.00 | 0.00 | 0.00 | 69 | 1009.7 |
| 20260505114059 | 60 | 191 | 4.3 | 9.6 | 0.00 | 0.00 | 0.00 | 69 | 1009.7 |
| 20260505113559 | 60 | 177 | 7.8 | 9.6 | 0.00 | 0.00 | 0.00 | 69 | 1009.7 |
| 20260505113059 | 60 | 181 | 7.0 | 8.7 | 0.00 | 0.00 | 0.00 | 68 | 1009.4 |
| 20260505112559 | 60 | 187 | 4.3 | 8.7 | 0.00 | 0.00 | 0.00 | 68 | 1009.4 |
| 20260505112059 | 60 | 182 | 7.0 | 7.8 | 0.00 | 0.00 | 0.00 | 68 | 1009.4 |
| 20260505111558 | 60 | 196 | 5.2 | 7.8 | 0.00 | 0.00 | 0.00 | 67 | 1009.4 |
| 20260505111059 | 60 | 192 | 7.0 | 9.6 | 0.00 | 0.00 | 0.00 | 67 | 1009.4 |
| 20260505110559 | 60 | 191 | 3.5 | 10.4 | 0.00 | 0.00 | 0.00 | 67 | 1009.0 |
| 20260505102058 | 61 | 182 | 6.1 | 9.6 | 0.00 | 0.00 | 0.00 | 66 | 1008.7 |
| 20260505101559 | 61 | 153 | 7.8 | 10.4 | 0.00 | 0.00 | 0.00 | 66 | 1009.0 |
| 20260505101058 | 61 | 179 | 5.2 | 10.4 | 0.00 | 0.00 | 0.00 | 66 | 1008.7 |
| 20260505100559 | 61 | 190 | 4.3 | 13.9 | 0.00 | 0.00 | 0.00 | 65 | 1008.7 |
| 20260505100059 | 61 | 172 | 6.1 | 13.9 | 0.00 | 0.00 | 0.00 | 65 | 1008.3 |
| 20260505095559 | 61 | 189 | 7.8 | 11.3 | 0.00 | 0.00 | 0.00 | 65 | 1008.3 |
| 20260505095059 | 61 | 155 | 6.1 | 12.2 | 0.00 | 0.00 | 0.00 | 65 | 1008.3 |
| 20260505094558 | 61 | 179 | 5.2 | 12.2 | 0.00 | 0.00 | 0.00 | 65 | 1008.0 |
| 20260505094058 | 61 | 180 | 7.0 | 11.3 | 0.00 | 0.00 | 0.00 | 65 | 1008.3 |
| 20260505093558 | 61 | 201 | 3.5 | 11.3 | 0.00 | 0.00 | 0.00 | 65 | 1008.3 |
| 20260505093059 | 61 | 189 | 5.2 | 11.3 | 0.00 | 0.00 | 0.00 | 65 | 1008.3 |
| 20260505092559 | 61 | 161 | 7.0 | 12.2 | 0.00 | 0.00 | 0.00 | 65 | 1008.3 |
| 20260505092059 | 62 | 166 | 6.1 | 12.2 | 0.00 | 0.00 | 0.00 | 64 | 1008.3 |
| 20260505091559 | 62 | 175 | 9.6 | 12.2 | 0.00 | 0.00 | 0.00 | 64 | 1008.0 |
| 20260505091059 | 62 | 166 | 8.7 | 11.3 | 0.00 | 0.00 | 0.00 | 64 | 1008.3 |
| 20260505090559 | 62 | 163 | 5.2 | 10.4 | 0.00 | 0.00 | 0.00 | 64 | 1008.3 |
| 20260505090059 | 62 | 169 | 5.2 | 11.3 | 0.00 | 0.00 | 0.00 | 64 | 1008.3 |
| 20260505085559 | 62 | 157 | 8.7 | 11.3 | 0.00 | 0.00 | 0.00 | 64 | 1008.3 |
| 20260505085059 | 62 | 159 | 7.8 | 9.6 | 0.00 | 0.00 | 0.00 | 64 | 1008.3 |
| 20260505084558 | 62 | 182 | 7.0 | 9.6 | 0.00 | 0.00 | 0.00 | 64 | 1008.3 |
| 20260505084059 | 62 | 146 | 6.1 | 9.6 | 0.00 | 0.00 | 0.00 | 64 | 1008.3 |
| 20260505083559 | 62 | 171 | 6.1 | 9.6 | 0.00 | 0.00 | 0.00 | 64 | 1008.3 |
| 20260505083058 | 62 | 143 | 2.6 | 11.3 | 0.00 | 0.00 | 0.00 | 63 | 1008.0 |
| 20260505082559 | 62 | 149 | 6.1 | 11.3 | 0.00 | 0.00 | 0.00 | 62 | 1008.3 |
| 20260505082058 | 62 | 138 | 5.2 | 10.4 | 0.00 | 0.00 | 0.00 | 62 | 1008.3 |
| 20260505081558 | 62 | 158 | 6.1 | 9.6 | 0.00 | 0.00 | 0.00 | 62 | 1008.0 |
| 20260505081058 | 62 | 174 | 7.0 | 9.6 | 0.00 | 0.00 | 0.00 | 62 | 1008.3 |
| 20260505080558 | 62 | 176 | 4.3 | 10.4 | 0.00 | 0.00 | 0.00 | 62 | 1008.3 |
| 20260505080059 | 63 | 190 | 6.1 | 10.4 | 0.00 | 0.00 | 0.00 | 61 | 1008.7 |
| 20260505075559 | 63 | 178 | 5.2 | 8.7 | 0.00 | 0.00 | 0.00 | 61 | 1008.7 |
| 20260505075059 | 63 | 176 | 7.0 | 8.7 | 0.00 | 0.00 | 0.00 | 61 | 1008.3 |
| 20260505074559 | 63 | 180 | 6.1 | 8.7 | 0.00 | 0.00 | 0.00 | 60 | 1008.3 |
| 20260505074059 | 63 | 178 | 5.2 | 9.6 | 0.00 | 0.00 | 0.00 | 60 | 1008.7 |
| 20260505073558 | 63 | 183 | 4.3 | 9.6 | 0.00 | 0.00 | 0.00 | 60 | 1008.7 |
| 20260505073059 | 63 | 174 | 7.0 | 9.6 | 0.00 | 0.00 | 0.00 | 60 | 1008.7 |
| 20260505072559 | 63 | 160 | 5.2 | 10.4 | 0.00 | 0.00 | 0.00 | 59 | 1009.0 |
| 20260505072059 | 64 | 184 | 6.1 | 12.2 | 0.00 | 0.00 | 0.00 | 59 | 1009.0 |
| 20260505071559 | 64 | 182 | 3.5 | 12.2 | 0.00 | 0.00 | 0.00 | 59 | 1009.0 |
| 20260505071059 | 64 | 185 | 5.2 | 11.3 | 0.00 | 0.00 | 0.00 | 59 | 1009.0 |
| 20260505070559 | 64 | 170 | 7.0 | 11.3 | 0.00 | 0.00 | 0.00 | 59 | 1009.0 |
| 20260505070059 | 64 | 183 | 4.3 | 9.6 | 0.00 | 0.00 | 0.00 | 59 | 1009.0 |
| 20260505065558 | 64 | 184 | 4.3 | 9.6 | 0.00 | 0.00 | 0.00 | 58 | 1009.0 |
| 20260505065059 | 64 | 188 | 5.2 | 8.7 | 0.00 | 0.00 | 0.00 | 58 | 1009.4 |
| 20260505064558 | 64 | 171 | 5.2 | 7.8 | 0.00 | 0.00 | 0.00 | 59 | 1009.0 |
| 20260505064059 | 64 | 180 | 4.3 | 8.7 | 0.00 | 0.00 | 0.00 | 59 | 1009.0 |
| 20260505063559 | 64 | 177 | 5.2 | 8.7 | 0.00 | 0.00 | 0.00 | 59 | 1009.0 |
| 20260505063059 | 64 | 174 | 4.3 | 9.6 | 0.00 | 0.00 | 0.00 | 59 | 1009.0 |
| 20260505062559 | 64 | 168 | 4.3 | 9.6 | 0.00 | 0.00 | 0.00 | 58 | 1009.0 |
| 20260505062058 | 64 | 184 | 6.1 | 9.6 | 0.00 | 0.00 | 0.00 | 59 | 1009.4 |
| 20260505061558 | 64 | 179 | 7.0 | 7.8 | 0.00 | 0.00 | 0.00 | 59 | 1009.0 |
| 20260505061058 | 64 | 185 | 3.5 | 7.8 | 0.00 | 0.00 | 0.00 | 58 | 1009.0 |
| 20260505060558 | 64 | 170 | 7.0 | 7.8 | 0.00 | 0.00 | 0.00 | 58 | 1009.4 |
| 20260505060059 | 64 | 164 | 4.3 | 7.0 | 0.00 | 0.00 | 0.00 | 59 | 1009.4 |
| 20260505055558 | 64 | 158 | 6.1 | 7.8 | 0.00 | 0.00 | 0.00 | 58 | 1009.7 |
| 20260505055059 | 64 | 157 | 6.1 | 7.8 | 0.00 | 0.00 | 0.00 | 58 | 1009.4 |
| 20260505054559 | 64 | 165 | 6.1 | 7.8 | 0.00 | 0.00 | 0.00 | 57 | 1009.4 |
| 20260505054059 | 65 | 126 | 4.3 | 7.8 | 0.00 | 0.00 | 0.00 | 57 | 1009.7 |
| 20260505053559 | 65 | 159 | 6.1 | 7.8 | 0.00 | 0.00 | 0.00 | 56 | 1009.4 |
| 20260505053058 | 65 | 154 | 5.2 | 7.8 | 0.00 | 0.00 | 0.00 | 56 | 1009.7 |
| 20260505052558 | 65 | 157 | 4.3 | 7.0 | 0.00 | 0.00 | 0.00 | 56 | 1009.7 |
| 20260505052059 | 65 | 167 | 4.3 | 7.0 | 0.00 | 0.00 | 0.00 | 56 | 1009.7 |
| 20260505051559 | 65 | 154 | 5.2 | 7.8 | 0.00 | 0.00 | 0.00 | 56 | 1009.7 |
| 20260505051059 | 65 | 162 | 6.1 | 7.8 | 0.00 | 0.00 | 0.00 | 56 | 1009.4 |
| 20260505050559 | 66 | 160 | 5.2 | 7.8 | 0.00 | 0.00 | 0.00 | 55 | 1009.4 |
| 20260505041558 | 67 | 137 | 3.5 | 7.8 | 0.00 | 0.00 | 0.00 | 51 | 1009.4 |
| 20260505041058 | 67 | 137 | 3.5 | 7.8 | 0.00 | 0.00 | 0.00 | 51 | 1009.7 |
| 20260505040558 | 67 | 165 | 6.1 | 7.8 | 0.00 | 0.00 | 0.00 | 51 | 1009.4 |
| 20260505040058 | 67 | 157 | 5.2 | 7.0 | 0.00 | 0.00 | 0.00 | 51 | 1009.0 |
| 20260505035559 | 68 | 161 | 5.2 | 7.0 | 0.00 | 0.00 | 0.00 | 51 | 1009.4 |
| 20260505035059 | 68 | 170 | 5.2 | 7.0 | 0.00 | 0.00 | 0.00 | 51 | 1009.4 |
| 20260505034559 | 68 | 171 | 4.3 | 7.8 | 0.00 | 0.00 | 0.00 | 51 | 1009.0 |
| 20260505034059 | 68 | 152 | 5.2 | 7.8 | 0.00 | 0.00 | 0.00 | 51 | 1009.0 |
| 20260505033558 | 68 | 186 | 5.2 | 7.8 | 0.00 | 0.00 | 0.00 | 50 | 1009.4 |
| 20260505033059 | 68 | 186 | 5.2 | 7.8 | 0.00 | 0.00 | 0.00 | 50 | 1009.4 |
| 20260505032558 | 68 | 174 | 3.5 | 8.7 | 0.00 | 0.00 | 0.00 | 50 | 1009.4 |
| 20260505032059 | 68 | 180 | 3.5 | 8.7 | 0.00 | 0.00 | 0.00 | 49 | 1009.4 |
| 20260505031559 | 69 | 171 | 6.1 | 9.6 | 0.00 | 0.00 | 0.00 | 49 | 1009.4 |
| 20260505031059 | 69 | 171 | 6.1 | 9.6 | 0.00 | 0.00 | 0.00 | 49 | 1009.0 |
| 20260505030559 | 69 | 156 | 8.7 | 11.3 | 0.00 | 0.00 | 0.00 | 48 | 1009.4 |
| 20260505030059 | 69 | 156 | 8.7 | 11.3 | 0.00 | 0.00 | 0.00 | 48 | 1009.0 |
| 20260505025558 | 69 | 169 | 9.6 | 11.3 | 0.00 | 0.00 | 0.00 | 48 | 1009.0 |
| 20260505024059 | 70 | 165 | 7.8 | 10.4 | 0.00 | 0.00 | 0.00 | 47 | 1009.0 |
| 20260505023559 | 70 | 165 | 7.8 | 10.4 | 0.00 | 0.00 | 0.00 | 47 | 1009.0 |
| 20260505023059 | 70 | 165 | 7.8 | 10.4 | 0.00 | 0.00 | 0.00 | 47 | 1009.0 |
| 20260505022559 | 70 | 173 | 6.1 | 10.4 | 0.00 | 0.00 | 0.00 | 47 | 1009.0 |
| 20260505022059 | 70 | 150 | 7.0 | 10.4 | 0.00 | 0.00 | 0.00 | 46 | 1009.0 |
| 20260505021559 | 71 | 151 | 6.1 | 10.4 | 0.00 | 0.00 | 0.00 | 46 | 1009.4 |
| 20260505021058 | 70 | 183 | 4.3 | 9.6 | 0.00 | 0.00 | 0.00 | 46 | 1009.0 |
| 20260505020559 | 71 | 158 | 5.2 | 9.6 | 0.00 | 0.00 | 0.00 | 46 | 1009.0 |
| 20260505020059 | 71 | 172 | 7.0 | 9.6 | 0.00 | 0.00 | 0.00 | 45 | 1009.0 |
| 20260505015558 | 71 | 172 | 7.0 | 9.6 | 0.00 | 0.00 | 0.00 | 45 | 1009.0 |
| 20260505015059 | 71 | 166 | 7.8 | 9.6 | 0.00 | 0.00 | 0.00 | 45 | 1008.7 |
| 20260505014559 | 71 | 169 | 7.8 | 9.6 | 0.00 | 0.00 | 0.00 | 45 | 1009.0 |
| 20260505014059 | 72 | 168 | 7.0 | 9.6 | 0.00 | 0.00 | 0.00 | 43 | 1009.0 |
| 20260505013558 | 72 | 168 | 7.0 | 9.6 | 0.00 | 0.00 | 0.00 | 43 | 1009.0 |
| 20260505013059 | 72 | 181 | 9.6 | 9.6 | 0.00 | 0.00 | 0.00 | 44 | 1008.7 |
| 20260505012559 | 72 | 180 | 6.1 | 9.6 | 0.00 | 0.00 | 0.00 | 44 | 1008.7 |
| 20260505012058 | 72 | 162 | 6.1 | 8.7 | 0.00 | 0.00 | 0.00 | 44 | 1008.7 |
| 20260505011558 | 72 | 192 | 5.2 | 8.7 | 0.00 | 0.00 | 0.00 | 43 | 1008.7 |
| 20260505011059 | 72 | 180 | 7.0 | 8.7 | 0.00 | 0.00 | 0.00 | 43 | 1008.7 |
| 20260505010559 | 73 | 184 | 6.1 | 11.3 | 0.00 | 0.00 | 0.00 | 42 | 1008.7 |
| 20260505010058 | 73 | 184 | 6.1 | 11.3 | 0.00 | 0.00 | 0.00 | 42 | 1009.0 |
| 20260505005559 | 73 | 202 | 7.8 | 10.4 | 0.00 | 0.00 | 0.00 | 42 | 1008.7 |
| 20260505005059 | 73 | 185 | 6.1 | 10.4 | 0.00 | 0.00 | 0.00 | 42 | 1009.0 |
| 20260505004559 | 73 | 187 | 7.0 | 10.4 | 0.00 | 0.00 | 0.00 | 42 | 1008.7 |
| 20260505003058 | 74 | 185 | 9.6 | 13.0 | 0.00 | 0.00 | 0.00 | 40 | 1008.7 |
| 20260505002559 | 74 | 185 | 9.6 | 13.0 | 0.00 | 0.00 | 0.00 | 40 | 1008.3 |
| 20260505002058 | 74 | 185 | 9.6 | 13.0 | 0.00 | 0.00 | 0.00 | 40 | 1008.7 |
| 20260505001558 | 75 | 189 | 8.7 | 12.2 | 0.00 | 0.00 | 0.00 | 39 | 1008.3 |
| 20260505001058 | 75 | 189 | 8.7 | 13.9 | 0.00 | 0.00 | 0.00 | 39 | 1008.0 |
| 20260505000558 | 75 | 178 | 11.3 | 13.9 | 0.00 | 0.00 | 0.00 | 39 | 1008.3 |
| 20260505000059 | 75 | 182 | 8.7 | 13.9 | 0.00 | 0.00 | 0.00 | 39 | 1008.3 |
| 20260504235558 | 75 | 140 | 4.3 | 11.3 | 0.00 | 0.00 | 0.00 | 39 | 1008.3 |
| 20260504235058 | 75 | 140 | 4.3 | 13.0 | 0.00 | 0.00 | 0.00 | 39 | 1008.7 |
| 20260504234558 | 75 | 140 | 4.3 | 13.0 | 0.00 | 0.00 | 0.00 | 39 | 1008.7 |
| 20260504234059 | 76 | 194 | 12.2 | 19.1 | 0.00 | 0.00 | 0.00 | 39 | 1008.3 |
| 20260504233559 | 76 | 168 | 2.6 | 19.1 | 0.00 | 0.00 | 0.00 | 38 | 1008.3 |
| 20260504233059 | 76 | 187 | 13.0 | 19.1 | 0.00 | 0.00 | 0.00 | 37 | 1008.3 |
| 20260504232559 | 76 | 190 | 6.1 | 15.6 | 0.00 | 0.00 | 0.00 | 38 | 1008.3 |
| 20260504232059 | 76 | 106 | 2.6 | 15.6 | 0.00 | 0.00 | 0.00 | 38 | 1008.3 |
| 20260504231559 | 76 | 198 | 9.6 | 15.6 | 0.00 | 0.00 | 0.00 | 38 | 1008.3 |
| 20260504231059 | 76 | 206 | 2.6 | 15.6 | 0.00 | 0.00 | 0.00 | 39 | 1008.3 |
| 20260504230558 | 77 | 195 | 7.8 | 13.0 | 0.00 | 0.00 | 0.00 | 37 | 1008.7 |
| 20260504230059 | 77 | 195 | 7.8 | 13.0 | 0.00 | 0.00 | 0.00 | 37 | 1008.3 |
| 20260504225559 | 76 | 179 | 9.6 | 17.4 | 0.00 | 0.00 | 0.00 | 37 | 1008.7 |
| 20260504225059 | 76 | 179 | 9.6 | 17.4 | 0.00 | 0.00 | 0.00 | 37 | 1008.3 |
| 20260504224558 | 77 | 203 | 10.4 | 20.0 | 0.00 | 0.00 | 0.00 | 37 | 1008.3 |
| 20260504224059 | 77 | 240 | 5.2 | 20.0 | 0.00 | 0.00 | 0.00 | 37 | 1008.3 |
| 20260504223558 | 77 | 194 | 16.5 | 20.0 | 0.00 | 0.00 | 0.00 | 36 | 1008.0 |
| 20260504223059 | 77 | 191 | 15.6 | 16.5 | 0.00 | 0.00 | 0.00 | 36 | 1008.3 |
| 20260504222559 | 77 | 186 | 11.3 | 20.9 | 0.00 | 0.00 | 0.00 | 34 | 1008.3 |
| 20260504221559 | 77 | 184 | 18.2 | 23.5 | 0.00 | 0.00 | 0.00 | 34 | 1008.7 |
| 20260504221058 | 77 | 191 | 17.4 | 19.1 | 0.00 | 0.00 | 0.00 | 34 | 1008.3 |
| 20260504220559 | 77 | 155 | 7.0 | 21.7 | 0.00 | 0.00 | 0.00 | 35 | 1008.7 |
| 20260504220058 | 77 | 155 | 7.0 | 21.7 | 0.00 | 0.00 | 0.00 | 35 | 1008.7 |
| 20260504215558 | 77 | 181 | 18.2 | 21.7 | 0.00 | 0.00 | 0.00 | 35 | 1008.7 |
| 20260504215058 | 77 | 179 | 7.0 | 19.1 | 0.00 | 0.00 | 0.00 | 36 | 1008.7 |
| 20260504214558 | 77 | 177 | 13.0 | 19.1 | 0.00 | 0.00 | 0.00 | 35 | 1008.3 |
| 20260504214058 | 77 | 186 | 7.8 | 19.1 | 0.00 | 0.00 | 0.00 | 35 | 1008.7 |
| 20260504213559 | 77 | 185 | 17.4 | 19.1 | 0.00 | 0.00 | 0.00 | 34 | 1008.7 |
| 20260504213058 | 77 | 214 | 10.4 | 19.1 | 0.00 | 0.00 | 0.00 | 35 | 1008.7 |
| 20260504212558 | 77 | 184 | 10.4 | 20.9 | 0.00 | 0.00 | 0.00 | 36 | 1008.7 |
| 20260504212059 | 77 | 182 | 19.1 | 20.9 | 0.00 | 0.00 | 0.00 | 36 | 1008.7 |
| 20260504211559 | 77 | 197 | 14.8 | 20.9 | 0.00 | 0.00 | 0.00 | 36 | 1008.7 |
| 20260504211058 | 77 | 197 | 7.8 | 11.3 | 0.00 | 0.00 | 0.00 | 36 | 1008.7 |
| 20260504210559 | 77 | 197 | 7.8 | 18.2 | 0.00 | 0.00 | 0.00 | 36 | 1009.0 |
| 20260504210059 | 77 | 120 | 5.2 | 18.2 | 0.00 | 0.00 | 0.00 | 37 | 1009.0 |
| 20260504205559 | 78 | 240 | 5.2 | 12.2 | 0.00 | 0.00 | 0.00 | 37 | 1009.0 |
| 20260504205058 | 77 | 209 | 1.7 | 12.2 | 0.00 | 0.00 | 0.00 | 39 | 1009.0 |
| 20260504203058 | 77 | 143 | 7.8 | 13.9 | 0.00 | 0.00 | 0.00 | 38 | 1009.4 |
| 20260504202559 | 77 | 143 | 7.8 | 13.9 | 0.00 | 0.00 | 0.00 | 38 | 1009.4 |
| 20260504202058 | 77 | 143 | 7.8 | 15.6 | 0.00 | 0.00 | 0.00 | 38 | 1009.0 |
| 20260504201558 | 78 | 182 | 7.0 | 15.6 | 0.00 | 0.00 | 0.00 | 38 | 1009.7 |
| 20260504201059 | 78 | 173 | 8.7 | 15.6 | 0.00 | 0.00 | 0.00 | 37 | 1009.7 |
| 20260504200559 | 77 | 197 | 7.8 | 20.0 | 0.00 | 0.00 | 0.00 | 38 | 1009.7 |
| 20260504200059 | 77 | 199 | 17.4 | 20.0 | 0.00 | 0.00 | 0.00 | 37 | 1009.7 |
| 20260504195558 | 77 | 199 | 17.4 | 20.0 | 0.00 | 0.00 | 0.00 | 37 | 1009.7 |
| 20260504195059 | 77 | 199 | 17.4 | 20.0 | 0.00 | 0.00 | 0.00 | 37 | 1009.7 |
| 20260504194558 | 76 | 167 | 4.3 | 15.6 | 0.00 | 0.00 | 0.00 | 40 | 1009.7 |
| 20260504194058 | 77 | 194 | 13.9 | 15.6 | 0.00 | 0.00 | 0.00 | 38 | 1010.1 |
| 20260504193558 | 77 | 209 | 2.6 | 11.3 | 0.00 | 0.00 | 0.00 | 40 | 1010.1 |
| 20260504193058 | 77 | 182 | 11.3 | 11.3 | 0.00 | 0.00 | 0.00 | 40 | 1010.1 |
| 20260504192558 | 77 | 182 | 11.3 | 16.5 | 0.00 | 0.00 | 0.00 | 39 | 1010.1 |
| 20260504192058 | 77 | 143 | 7.8 | 16.5 | 0.00 | 0.00 | 0.00 | 39 | 1010.1 |
| 20260504191559 | 77 | 184 | 4.3 | 11.3 | 0.00 | 0.00 | 0.00 | 39 | 1010.4 |
| 20260504191059 | 77 | 184 | 4.3 | 13.9 | 0.00 | 0.00 | 0.00 | 37 | 1010.4 |
| 20260504190559 | 77 | 188 | 7.8 | 13.9 | 0.00 | 0.00 | 0.00 | 37 | 1010.4 |
| 20260504190058 | 76 | 170 | 6.1 | 13.9 | 0.00 | 0.00 | 0.00 | 41 | 1010.8 |
| 20260504185558 | 76 | 170 | 6.1 | 13.9 | 0.00 | 0.00 | 0.00 | 41 | 1010.1 |
| 20260504185059 | 76 | 194 | 13.0 | 13.9 | 0.00 | 0.00 | 0.00 | 41 | 1010.1 |
| 20260504184558 | 77 | 182 | 7.8 | 13.0 | 0.00 | 0.00 | 0.00 | 40 | 1010.4 |
| 20260504184058 | 76 | 253 | 1.7 | 13.0 | 0.00 | 0.00 | 0.00 | 40 | 1010.8 |
| 20260504183558 | 76 | 253 | 1.7 | 13.0 | 0.00 | 0.00 | 0.00 | 40 | 1010.4 |
| 20260504183059 | 76 | 186 | 10.4 | 13.0 | 0.00 | 0.00 | 0.00 | 41 | 1010.8 |
| 20260504182559 | 76 | 186 | 10.4 | 14.8 | 0.00 | 0.00 | 0.00 | 41 | 1010.8 |
| 20260504181558 | 75 | 227 | 9.6 | 14.8 | 0.00 | 0.00 | 0.00 | 42 | 1010.8 |
| 20260504181058 | 75 | 227 | 9.6 | 17.4 | 0.00 | 0.00 | 0.00 | 42 | 1010.8 |
| 20260504180559 | 76 | 229 | 15.6 | 17.4 | 0.00 | 0.00 | 0.00 | 42 | 1010.8 |
| 20260504180059 | 76 | 229 | 15.6 | 17.4 | 0.00 | 0.00 | 0.00 | 42 | 1010.8 |
| 20260504175558 | 76 | 229 | 15.6 | 17.4 | 0.00 | 0.00 | 0.00 | 42 | 1010.8 |
| 20260504175059 | 75 | 194 | 8.7 | 16.5 | 0.00 | 0.00 | 0.00 | 43 | 1011.1 |
| 20260504174559 | 75 | 212 | 11.3 | 18.2 | 0.00 | 0.00 | 0.00 | 44 | 1010.8 |
| 20260504174059 | 75 | 212 | 11.3 | 18.2 | 0.00 | 0.00 | 0.00 | 44 | 1011.1 |
| 20260504173558 | 76 | 179 | 15.6 | 18.2 | 0.00 | 0.00 | 0.00 | 43 | 1010.8 |
| 20260504173058 | 74 | 204 | 9.6 | 15.6 | 0.00 | 0.00 | 0.00 | 44 | 1011.5 |
| 20260504172559 | 74 | 183 | 13.0 | 15.6 | 0.00 | 0.00 | 0.00 | 44 | 1011.1 |
| 20260504172058 | 74 | 183 | 13.0 | 17.4 | 0.00 | 0.00 | 0.00 | 44 | 1011.5 |
| 20260504171558 | 74 | 183 | 13.0 | 17.4 | 0.00 | 0.00 | 0.00 | 44 | 1011.5 |
| 20260504171058 | 74 | 240 | 7.8 | 17.4 | 0.00 | 0.00 | 0.00 | 44 | 1011.5 |
| 20260504170558 | 74 | 127 | 3.5 | 17.4 | 0.00 | 0.00 | 0.00 | 45 | 1011.8 |
| 20260504151058 | 69 | 164 | 7.8 | 13.0 | 0.00 | 0.00 | 0.00 | 52 | 1012.8 |
| 20260504150558 | 68 | 160 | 6.1 | 15.6 | 0.00 | 0.00 | 0.00 | 52 | 1012.8 |
| 20260504140842 | 66 | 213 | 6.1 | 14.8 | 0.00 | 0.00 | 0.00 | 56 | 1013.2 |
| 20260504140342 | 66 | 213 | 6.1 | 14.8 | 0.00 | 0.00 | 0.00 | 56 | 1012.8 |
| 20260504130800 | 61 | 178 | 5.2 | 7.8 | 0.00 | 0.00 | 0.00 | 62 | 1013.2 |
| 20260504130300 | 60 | 166 | 4.3 | 8.7 | 0.00 | 0.00 | 0.00 | 62 | 1013.2 |
| 20260504120300 | 57 | 125 | 2.6 | 7.8 | 0.00 | 0.00 | 0.00 | 63 | 1012.8 |